CAPE
2 22 24 26 6 0 0 0 0 0 0 0 0 1 3 0 0 0 0 0 0 0 0 1 1 2 0 0 0 0 0 0 0 0 0 0 0 0 0 0 0 0 0 0 0 0 0
29 21 34 29 26 25 2 0 0 0 0 0 0 0 0 0 0 0 0 0 0 0 0 0 1 1 0 0 0 0 0 0 0 0 0 0 0 0 0 0 0 0 0 0 0 0 0
38 30 27 36 31 29 21 0 0 0 0 0 0 0 0 0 0 0 0 0 0 0 0 0 1 0 0 0 0 0 0 0 0 0 0 0 0 0 0 0 0 0 0 0 0 0 0
33 39 31 51 64 71 68 60 4 0 0 0 0 0 0 1 0 0 0 0 0 0 0 0 0 0 0 0 0 0 0 0 0 0 0 0 0 0 0 0 0 0 0 0 0 0 0
47 51 42 40 66 66 72 68 53 20 0 0 0 0 0 0 0 0 0 0 0 0 0 0 0 0 0 0 0 0 0 0 0 0 0 0 0 0 0 0 0 0 0 0 0 1 0
42 40 50 51 49 61 58 67 61 63 56 0 0 0 0 0 0 0 0 0 0 0 0 0 0 0 0 0 0 0 0 0 0 0 0 0 0 0 0 0 0 0 0 0 0 5 0
32 45 37 42 47 45 36 30 65 62 63 40 0 0 0 0 0 0 0 0 0 0 0 0 0 0 0 0 0 0 0 0 0 0 0 0 0 0 0 0 0 0 0 0 0 0 0
42 32 29 39 48 45 39 35 57 69 67 56 0 0 0 0 0 0 0 0 0 1 2 0 0 0 0 0 0 0 0 0 0 0 0 0 0 0 0 0 0 0 0 0 3 0 0
51 44 30 23 35 37 35 31 59 61 69 60 0 0 0 0 0 0 0 0 0 0 0 0 0 0 0 0 0 0 0 0 0 0 0 0 0 0 0 0 0 0 0 0 38 0 0
61 60 46 20 10 11 28 41 33 36 62 61 34 0 0 0 0 0 0 0 0 0 0 0 0 0 0 0 0 0 0 0 0 0 0 0 0 0 0 0 0 0 0 0 9 35 0
61 52 55 53 19 45 58 33 30 26 22 54 43 0 0 0 0 0 0 0 0 0 0 0 0 0 0 0 0 0 0 0 0 0 0 0 0 0 0 0 0 0 0 0 16 3 23
45 48 51 53 47 61 63 70 56 47 48 62 44 0 0 0 0 0 0 0 0 0 0 0 0 0 0 0 0 0 0 0 0 0 0 0 0 0 0 0 0 0 0 0 0 0 0
47 33 39 33 45 46 52 74 65 75 73 66 51 0 0 0 0 0 0 0 3 1 0 0 0 0 0 0 0 0 0 0 0 0 0 0 0 0 0 0 0 0 0 0 0 0 0
53 49 43 37 35 62 55 77 78 77 83 77 56 6 0 0 0 0 0 2 0 0 0 0 0 0 0 0 0 0 0 0 0 0 0 0 0 0 0 0 0 0 0 0 0 0 24
55 75 77 65 50 55 60 66 88 86 94 85 59 0 0 0 0 0 0 27 0 0 0 0 0 0 0 0 0 0 0 0 0 0 0 0 0 0 0 0 0 0 0 0 0 0 38
63 66 71 72 65 61 78 75 89 93 113 100 0 0 0 0 0 0 0 0 0 0 0 0 0 0 0 0 0 0 0 0 0 0 0 0 0 0 0 0 0 0 0 0 0 0 21
51 58 67 87 78 75 65 77 88 94 142 106 0 19 0 0 0 14 1 0 0 0 0 0 0 0 0 0 0 0 0 0 0 0 0 0 0 0 0 0 0 0 0 0 0 0 31
109 119 113 118 106 118 111 98 126 155 199 40 1 41 0 0 3 12 6 0 0 0 0 0 0 0 0 0 0 0 0 0 0 0 0 0 0 0 0 0 0 0 0 0 0 0 7
122 107 144 151 167 153 164 142 153 156 205 0 53 25 0 13 0 0 1 0 0 0 0 0 0 0 0 0 0 0 0 0 0 0 0 0 0 0 0 0 0 0 0 0 0 0 9
169 233 177 139 161 160 189 180 185 200 243 11 83 80 0 26 13 0 0 3 0 0 0 0 0 0 0 0 0 0 0 0 0 0 0 0 0 0 0 0 0 0 0 0 0 0 5
227 251 272 215 155 132 136 222 244 247 316 34 95 118 0 0 43 44 12 9 0 4 0 0 0 0 0 0 0 0 0 0 0 0 0 0 0 0 0 0 0 0 0 0 3 0 0
258 161 234 153 254 187 173 197 246 283 339 52 35 131 13 0 0 13 19 2 1 0 0 0 0 0 0 0 0 0 0 0 0 0 0 0 0 0 0 0 0 0 0 0 8 0 0
117 92 128 145 264 305 223 187 244 293 180 20 37 15 26 3 18 14 3 2 0 0 0 0 0 0 0 0 0 0 0 0 0 0 0 0 0 0 0 0 0 0 0 0 0 0 0
88 95 214 204 222 88 319 217 232 280 172 0 14 85 40 28 2 9 8 1 0 0 1 0 0 0 0 0 0 0 0 0 0 0 0 0 0 0 0 0 0 0 0 0 0 0 0
287 186 354 408 354 379 371 273 214 275 266 0 8 13 25 14 0 0 0 0 0 0 0 0 0 0 0 0 0 15 43 8 0 0 0 0 0 0 0 0 0 0 0 0 0 0 0
240 238 203 334 316 87 5 53 183 255 297 11 1 0 5 0 0 0 0 0 0 0 0 0 0 0 0 0 0 167 0 0 0 0 0 2 0 0 0 16 0 0 0 0 0 0 0
228 246 208 89 233 94 81 155 243 265 253 28 8 0 2 0 0 0 0 0 0 0 7 0 5 0 0 0 0 9 3 0 0 0 0 0 9 0 0 0 0 0 0 0 0 0 0
207 235 226 222 184 236 230 226 255 328 323 56 5 5 3 2 0 0 0 0 0 3 0 2 5 5 0 0 21 16 0 0 0 0 0 0 8 5 1 0 0 0 0 0 0 0 0
122 206 220 255 287 286 283 298 309 335 301 90 25 1 19 7 0 0 0 0 0 0 10 4 6 5 0 0 0 188 60 0 0 0 0 3 0 0 0 0 0 0 0 0 0 0 0
CIN
0 0 0 0 0 0 0 0 0 0 0 0 0 0 0 0 0 0 0 0 0 0 0 0 0 0 0 0 0 0 0 0 0 0 0 0 0 0 0 0 0 0 0 0 0 0 0
0 0 0 0 0 0 0 0 0 0 0 0 0 0 0 0 0 0 0 0 0 0 0 0 0 0 0 0 0 0 0 0 0 0 0 0 0 0 0 0 0 0 0 0 0 0 0
0 0 0 0 0 0 0 0 0 0 0 0 0 0 0 0 0 0 0 0 0 0 0 0 0 0 0 0 0 0 0 0 0 0 0 0 0 0 0 0 0 0 0 0 0 0 0
-1 0 0 0 0 0 0 0 0 0 0 0 0 0 0 0 0 0 0 0 0 0 0 0 0 0 0 0 0 0 0 0 0 0 0 0 0 0 0 0 0 0 0 0 0 0 0
0 -2 0 0 0 0 0 0 0 0 0 0 0 0 0 0 0 0 0 0 0 0 0 0 0 0 0 0 0 0 0 0 0 0 0 0 0 0 0 0 0 0 0 0 0 -159 0
0 0 -1 0 -1 0 0 0 0 0 0 -1 0 0 0 0 0 0 0 0 0 0 0 0 0 0 0 0 0 0 0 0 0 0 0 0 0 0 0 0 0 0 0 0 0 -103 0
0 0 0 0 0 0 0 0 0 -1 -1 -1 0 0 0 0 0 0 0 0 0 0 0 0 0 0 0 0 0 0 0 0 0 0 0 0 0 0 0 0 0 0 0 0 0 0 0
0 0 0 0 0 0 0 0 0 -1 0 -1 0 0 0 0 0 0 0 0 0 0 0 0 0 0 0 0 0 0 0 0 0 0 0 0 0 0 0 0 0 0 0 0 -180 0 0
0 0 0 0 0 0 0 0 0 0 0 -1 0 0 0 0 0 0 0 0 0 0 0 0 0 0 0 0 0 0 0 0 0 0 0 0 0 0 0 0 0 0 0 0 -142 0 0
0 -1 -1 0 0 0 0 0 0 0 0 0 -1 0 0 0 0 0 0 0 0 0 0 0 0 0 0 0 0 0 0 0 0 0 0 0 0 0 0 0 0 0 0 0 -293 -256 0
0 0 0 0 0 0 0 0 0 0 0 0 0 0 0 0 0 0 0 0 0 0 0 0 0 0 0 0 0 0 0 0 0 0 0 0 0 0 0 0 0 0 0 0 -226 -173 -241
0 0 0 0 0 0 0 0 0 0 0 0 0 0 0 0 0 0 0 0 0 0 0 0 0 0 0 0 0 0 0 0 0 0 0 0 0 0 0 0 0 0 0 0 0 0 -12
0 0 0 0 0 0 0 0 0 0 0 0 -1 0 0 0 0 0 0 0 -2 0 0 0 0 0 0 0 0 0 0 0 0 0 0 0 0 0 0 0 0 0 0 0 0 0 0
0 0 0 0 0 0 0 0 0 0 0 0 -2 -2 0 0 0 0 0 -28 0 0 0 0 0 0 0 0 0 0 0 0 0 0 0 0 0 0 0 0 0 0 0 0 0 0 -96
0 0 0 0 0 0 0 0 0 0 0 0 -3 0 0 0 0 0 0 0 0 0 0 0 0 0 0 0 0 0 0 0 0 0 0 0 0 0 0 0 0 0 0 0 0 0 -120
0 0 0 0 0 0 0 0 0 0 0 -1 0 0 0 0 0 0 0 0 0 0 0 0 0 0 0 0 0 0 0 0 0 0 0 0 0 0 0 0 0 0 0 0 0 0 -109
0 0 0 0 0 0 0 0 0 0 0 -4 0 -1 0 0 0 -1 0 0 0 0 0 0 0 0 0 0 0 0 0 0 0 0 0 0 0 0 0 0 0 0 0 0 0 0 -96
0 0 0 0 0 0 0 0 0 0 0 -5 -9 0 0 0 0 -1 0 0 0 0 0 0 0 0 0 0 0 0 0 0 0 0 0 0 0 0 0 0 0 0 0 0 0 0 -213
0 0 0 0 0 0 0 0 0 -2 -1 0 -1 -2 0 -55 0 0 -4 -1 0 0 0 0 0 0 0 0 0 0 0 0 0 0 0 0 0 0 0 0 0 0 0 0 0 0 -151
0 0 0 -1 0 0 0 0 0 -1 -1 -20 -2 0 0 -7 -13 0 0 0 0 0 0 0 0 0 0 0 0 0 0 0 0 0 0 0 0 0 0 0 0 0 0 0 0 0 -272
0 0 0 0 0 0 0 0 0 0 0 -16 -1 0 0 0 -1 -1 0 -3 0 -2 0 0 0 0 0 0 0 0 0 0 0 0 0 0 0 0 0 0 0 0 0 0 -40 0 0
0 0 0 0 0 0 0 0 0 0 0 -2 -2 0 -33 -1 0 -14 -14 -1 0 0 0 0 0 0 0 0 0 0 0 0 0 0 0 0 0 0 0 0 0 0 0 -2 -220 0 0
-18 -4 0 -1 0 0 0 0 0 0 -3 -4 -10 -5 -1 -26 -29 -17 0 0 0 0 0 0 0 0 0 0 0 0 0 0 0 0 0 0 0 0 0 0 0 0 0 0 0 0 0
0 -6 0 0 0 0 0 0 0 0 -2 0 -1 -2 -4 -5 -10 -14 -5 -10 0 -3 0 0 0 0 0 0 0 0 0 0 0 0 0 0 -68 0 0 0 0 0 0 0 0 0 0
0 0 0 0 0 0 0 0 0 0 0 0 -7 -5 0 -2 0 0 0 0 0 0 0 0 0 0 0 0 0 -84 -110 -165 0 0 0 0 0 0 0 0 -5 0 0 0 0 0 0
0 -2 -5 -1 0 -1 -1 0 0 0 0 -6 -4 -1 0 0 0 0 0 0 0 0 0 0 0 0 0 0 0 -33 0 0 0 0 0 -212 0 -11 0 -55 0 0 0 0 0 0 0
-3 -2 -2 -2 0 -1 -1 -1 0 0 0 -2 -10 -6 -1 0 0 0 0 0 0 0 0 0 -13 -8 0 0 0 -27 -6 0 0 0 0 0 -121 0 0 0 0 0 0 0 0 0 0
-5 -1 -1 0 0 0 0 0 0 0 0 -2 -5 -3 0 0 0 0 0 0 0 -1 0 0 -2 -4 0 0 -17 -65 -7 0 0 0 0 0 -60 -52 -86 0 0 0 0 0 0 0 0
-6 -2 -1 0 0 0 0 0 0 0 0 -2 -2 -16 0 0 0 0 0 0 0 0 -8 0 -1 0 0 0 0 -111 -125 0 0 0 0 -57 0 0 0 0 0 0 0 0 0 0 0
Wind_Speed
9 10 10 9 9 9 10 11 12 12 13 14 15 17 18 19 20 21 21 21 21 23 22 21 22 21 9 4 10 1 7 4 6 6 4 4 3 4 3 2 3 2 4 9 15 17 12
8 8 9 10 10 10 10 10 10 12 13 14 15 16 18 18 20 21 21 23 23 23 20 20 19 17 3 5 4 7 7 3 5 5 5 6 7 4 5 3 3 1 11 19 17 20 12
9 9 9 9 9 10 11 8 8 9 12 14 15 15 18 20 21 22 22 22 24 25 22 20 16 3 4 17 2 8 4 4 4 5 4 4 1 2 4 6 3 1 11 7 12 9 10
10 9 9 9 9 9 9 10 10 10 10 11 15 16 17 18 21 23 24 24 25 25 23 17 7 1 10 8 4 9 3 7 5 7 5 5 5 6 4 1 8 5 6 6 11 12 13
11 11 10 9 9 9 10 10 11 11 11 10 12 15 17 19 21 24 27 29 29 26 18 9 3 3 12 10 5 10 9 5 3 4 4 6 2 2 4 5 6 6 3 2 5 5 8
12 11 11 10 10 9 10 11 11 11 10 8 11 14 17 20 21 25 29 33 24 10 2 7 3 2 6 4 6 4 6 7 1 5 0 3 5 2 4 5 7 7 3 4 6 6 9
12 12 12 12 11 11 11 12 11 10 10 9 10 15 17 20 22 25 19 8 9 6 8 6 5 6 8 9 7 4 5 6 2 1 6 3 3 9 11 9 5 3 3 4 7 7 10
13 13 12 12 12 12 11 12 10 11 10 11 9 12 17 21 22 26 4 5 6 6 13 15 18 17 24 9 8 7 7 6 6 6 5 1 13 12 7 5 7 7 7 4 8 3 12
14 14 12 12 13 12 13 12 11 11 10 10 7 11 16 20 25 6 5 4 10 11 5 9 10 9 12 11 9 8 9 6 4 6 9 9 5 10 8 8 8 9 8 9 8 10 13
15 15 14 13 13 12 13 13 12 11 11 10 8 9 12 19 7 7 3 17 13 4 3 9 9 11 10 9 9 11 7 7 4 14 6 7 10 10 6 11 7 10 8 7 17 7 6
15 15 13 14 14 12 11 12 12 11 11 10 9 9 9 7 4 5 9 15 15 1 3 6 8 4 11 15 8 12 10 2 10 8 9 13 9 9 12 19 6 12 9 7 13 7 8
16 16 15 15 14 13 12 10 10 10 10 9 9 9 7 5 3 6 13 16 2 2 10 7 9 10 9 6 4 4 7 4 3 5 1 11 0 7 10 8 11 8 4 1 5 5 4
17 16 17 16 15 16 15 12 11 10 10 9 9 9 2 1 4 8 9 5 2 7 8 6 6 8 9 10 11 6 10 13 10 8 8 17 15 6 6 7 4 4 6 3 3 3 4
19 18 18 18 18 17 17 14 12 11 10 9 8 8 4 4 4 7 5 2 6 4 8 12 8 10 11 7 8 7 8 15 11 3 5 7 6 13 6 13 9 8 9 7 6 4 5
20 19 19 19 18 18 17 17 13 12 10 9 6 1 3 4 3 2 4 7 6 5 7 17 16 6 5 7 7 11 7 14 19 18 9 8 9 4 8 8 11 6 6 8 6 3 5
22 21 21 19 19 19 18 18 16 13 11 9 3 1 5 3 7 4 4 9 8 3 16 12 5 11 5 8 9 12 10 8 8 20 6 5 3 8 8 5 5 11 7 2 2 5 4
21 21 21 20 18 17 19 18 18 15 12 9 3 2 6 7 5 2 8 8 5 12 13 10 10 11 8 6 5 10 8 12 19 14 17 5 3 7 2 8 14 2 2 2 5 6 7
23 23 23 22 20 19 19 20 20 16 13 6 3 5 4 9 6 4 10 2 6 13 12 10 9 9 13 11 10 10 15 10 12 12 16 12 7 6 9 8 9 10 11 8 6 3 4
26 26 25 24 23 21 19 20 21 18 15 5 3 3 3 3 10 10 1 5 6 6 7 5 8 3 7 11 11 9 13 12 9 20 17 11 5 1 8 6 2 11 6 5 5 4 4
26 26 26 27 26 25 22 21 21 20 18 6 4 5 4 5 4 8 11 12 12 11 16 14 15 16 17 15 14 12 5 10 8 11 8 17 6 9 8 7 4 8 7 6 8 5 7
23 25 27 27 28 28 25 24 23 21 19 7 6 5 6 7 10 9 12 3 10 5 11 12 8 23 16 10 16 7 9 8 5 9 8 9 8 7 8 9 5 6 8 7 6 7 8
25 24 29 29 26 30 29 27 25 24 21 8 6 5 3 4 11 12 11 11 16 15 10 11 17 18 12 16 15 25 15 9 8 3 9 6 7 8 7 7 5 5 5 10 5 13 15
30 28 22 23 24 29 31 29 27 26 20 5 7 3 3 6 6 10 12 14 15 14 13 22 21 18 19 26 18 20 23 23 20 9 7 11 8 6 5 3 3 2 9 6 5 12 27
24 23 23 22 25 30 32 32 30 28 26 3 2 2 5 3 9 10 9 11 14 15 18 20 14 16 13 14 22 23 24 22 16 17 10 8 7 5 4 3 2 8 7 20 20 16 12
21 20 24 26 26 26 32 34 31 29 28 5 4 4 2 6 5 8 9 8 10 13 17 20 23 23 18 15 15 10 3 4 9 9 6 8 6 5 7 2 1 3 8 13 19 4 16
14 17 14 14 21 25 17 35 29 28 27 9 6 5 1 1 7 9 6 5 3 6 10 17 20 15 6 5 8 6 6 6 5 4 4 6 9 8 4 5 6 9 4 17 13 6 14
12 13 12 12 23 27 27 25 26 25 26 11 3 7 4 5 5 6 5 6 5 3 4 9 5 6 8 9 8 6 7 8 5 9 7 5 4 7 5 4 5 8 21 10 6 12 22
9 9 10 15 21 24 24 23 23 24 24 13 4 6 5 4 5 7 7 6 3 4 5 6 5 9 8 10 5 7 6 6 5 7 9 7 7 4 4 5 3 15 8 10 6 21 28
6 6 9 19 22 22 23 23 24 23 22 18 3 4 7 6 5 3 7 13 12 12 3 2 7 7 5 4 4 5 5 4 7 4 2 3 8 9 8 7 5 22 6 9 24 30 21
Wind_Direction
325 326 327 319 317 329 338 346 351 355 353 353 352 351 349 346 342 336 331 324 322 318 320 325 329 331 348 337 254 254 112 139 121 141 184 173 159 182 226 241 12 191 123 53 95 88 78
315 319 323 323 327 316 313 326 332 340 346 348 347 346 343 340 337 334 328 322 316 310 312 319 326 331 341 267 258 134 126 186 148 171 184 177 204 163 260 264 155 50 113 121 109 121 130
310 311 309 314 319 319 317 302 304 321 334 340 343 341 338 333 331 327 322 314 310 307 310 312 319 308 272 241 298 317 315 218 191 181 197 210 162 138 302 304 315 124 110 153 172 152 132
305 307 303 310 310 310 310 306 299 301 316 330 335 335 332 329 325 321 317 313 306 299 297 299 298 265 251 262 307 287 226 292 238 226 204 260 238 223 192 254 3 3 106 153 201 182 181
320 303 292 296 305 312 315 313 304 297 304 316 327 328 327 326 322 321 317 312 300 288 282 266 164 190 265 296 274 242 181 229 324 291 224 249 109 163 23 79 6 359 243 311 145 177 121
305 306 305 305 303 305 311 312 313 311 302 304 322 326 324 322 325 323 320 308 293 296 128 143 258 343 264 269 280 237 187 152 221 334 241 91 56 52 40 88 217 222 248 238 169 202 63
296 302 302 303 297 296 304 308 313 316 312 300 315 324 323 323 328 326 332 349 12 351 9 258 241 280 293 346 312 231 153 113 139 102 167 183 121 214 210 194 222 208 272 288 41 92 71
291 291 293 296 296 297 299 303 309 314 313 311 307 319 320 324 328 322 340 29 69 277 294 278 259 261 267 299 307 299 118 138 149 177 157 64 233 220 209 218 241 250 261 120 82 50 88
286 286 287 290 291 294 295 299 307 313 319 318 294 314 322 330 320 351 313 49 325 342 260 278 224 219 239 164 218 261 151 167 139 137 194 179 224 190 195 241 231 240 218 197 162 106 69
290 285 282 284 288 291 293 294 296 303 308 315 300 305 332 341 37 327 322 330 322 292 310 267 220 232 186 176 250 219 194 147 193 195 138 238 244 261 216 241 194 258 216 191 142 151 181
288 291 286 280 280 279 280 285 289 292 297 304 305 296 341 357 261 331 307 313 313 118 307 220 193 208 175 174 138 214 191 97 182 184 140 226 162 203 222 237 208 251 266 220 177 153 111
284 286 284 284 280 277 267 270 276 280 281 287 294 283 359 351 331 259 312 314 19 44 249 284 159 169 142 207 212 111 141 162 165 119 156 242 316 164 215 234 212 246 277 42 78 117 78
279 278 279 278 276 273 271 264 264 272 271 270 276 265 308 341 264 317 315 342 82 223 311 278 185 164 165 182 203 174 162 181 174 144 200 251 257 251 212 254 222 160 72 307 325 354 187
275 274 271 270 270 266 264 263 257 258 265 261 261 246 272 209 269 328 344 79 234 252 272 318 352 157 185 147 217 199 149 191 222 153 126 174 287 209 185 200 196 203 157 169 199 190 149
274 271 268 265 264 262 256 256 250 251 255 254 263 315 269 252 210 64 47 212 225 211 6 350 315 177 222 205 148 185 204 210 192 195 155 170 251 208 179 196 167 228 214 173 156 129 89
277 275 273 266 261 257 254 248 243 243 241 237 138 200 248 208 142 76 85 245 225 294 2 345 298 20 242 192 198 179 173 209 207 201 175 203 260 211 234 135 241 184 162 142 357 168 114
274 271 269 267 263 256 250 243 235 228 228 219 119 218 261 151 100 178 222 228 308 304 356 340 339 326 294 310 243 187 205 233 198 200 191 152 91 291 131 185 210 142 183 121 128 139 147
266 261 259 258 257 254 245 238 229 218 213 187 179 216 277 146 185 210 229 226 341 292 313 303 291 265 264 339 294 200 206 208 186 172 183 184 190 243 234 259 208 202 197 155 130 205 81
262 256 252 248 246 243 240 234 222 212 195 137 214 216 293 148 207 224 202 219 247 290 266 259 271 300 339 328 311 271 211 219 238 180 184 165 216 142 332 343 135 204 181 159 121 88 166
261 258 247 247 239 234 230 225 217 208 199 156 176 204 229 219 208 204 216 236 250 247 267 240 260 268 287 293 271 278 301 229 217 190 189 153 164 183 191 208 166 167 188 172 140 126 148
267 263 256 243 236 229 222 217 211 204 198 168 191 206 206 191 217 210 205 243 227 257 227 264 259 231 241 259 306 219 358 309 210 220 149 142 178 167 210 220 203 188 188 178 154 162 150
269 269 269 236 232 223 220 211 204 201 190 198 206 194 218 206 201 196 205 210 244 257 252 271 251 255 275 262 253 295 314 331 231 174 152 187 210 151 213 210 201 207 211 107 88 91 77
277 259 261 239 229 219 214 209 199 198 182 191 201 245 298 195 170 180 213 227 234 243 250 246 256 281 277 265 278 275 285 274 258 284 172 156 146 129 213 203 284 258 170 131 107 137 138
273 261 252 240 218 212 214 202 196 193 190 127 174 187 220 255 195 183 181 201 222 245 261 281 288 268 247 301 309 279 258 256 245 249 219 142 116 118 171 77 145 257 172 148 139 147 143
268 258 253 236 222 216 204 197 190 191 190 179 139 179 174 215 205 175 188 221 244 250 263 264 265 252 282 295 293 291 262 193 230 206 164 134 116 91 120 111 64 34 135 132 140 68 140
265 271 245 219 220 185 191 177 180 187 189 176 195 140 185 206 206 182 191 205 233 251 270 263 269 256 253 286 268 248 229 183 189 133 97 85 117 117 111 133 171 215 137 123 109 103 161
283 265 225 223 173 177 182 178 177 181 187 178 162 173 137 239 240 150 172 177 177 214 266 294 304 250 251 251 246 242 248 170 153 149 154 96 67 139 117 148 256 172 155 175 109 193 165
302 225 202 176 169 170 175 177 180 187 189 174 176 157 151 260 262 193 174 158 157 204 202 330 4 240 238 204 211 236 233 209 116 167 157 148 123 157 111 106 189 165 182 165 178 144 154
331 193 193 177 173 171 175 180 185 189 190 171 174 168 214 254 256 257 226 217 212 216 171 201 271 312 258 189 242 269 259 131 139 179 102 175 175 150 170 204 213 168 157 133 138 146 155